Location: ?????????
(55.6553°N, 38.9075°E)
Time: 17:23:40
(UTC+00:00)

Meteor 2-5 Rocket - Pass Details

Date: 18 October 2019
Orbit: 833 x 912 km, 81.2° (Epoch: 18 November)

Event Time Altitude Azimuth Distance (km) Brightness Sun altitude
Rises 03:01:08 0° 185° (S) 3,470 6.9 -9.0°
Reaches altitude 10° 03:03:33 10° 184° (S) 2,546 6.2 -8.7°
Maximum altitude 03:09:20 74° 101° (E) 939 4.2 -7.9°
Drops below altitude 10° 03:15:16 10° 17° (NNE) 2,605 6.4 -7.0°
Sets 03:17:46 0° 16° (NNE) 3,556 7.1 -6.7°
